Location: Ladrillo (historical)
(32.8195°N, 117.2231°W)
Time: 22:45:05
(UTC+00:00)

X-37B - Pass Details

Date: 29 January 2021
Orbit: 383 x 391 km, 45.0° (Epoch: 10 February)

Event Time Altitude Azimuth Distance (km) Brightness Sun altitude
Rises 03:02:18 0° 312° (NW) 2,274 5.1 -22.0°
Reaches altitude 10° 03:04:32 10° 324° (NW) 1,418 3.8 -22.5°
Enters shadow 03:05:25 16° 334° (NNW) 1,123 3.1 -22.6°
